User: anonymous   Login
Location: Anglesey
(53.1800°N, 4.2200°W)
Time: 00:53:47
(UTC+01:00)
Language:

ITUPSAT 1 - Orbit

View from above orbital plane
View from above orbital plane
View from above satellite
View from above satellite

Ground track
Ground track

The orbit data is extracted from the following two-line orbital elements,

1 35935U 09051E   18170.37482028 +.00000094 +00000-0 +32857-4 0  9993
2 35935 098.5609 323.3898 0007669 203.8176 156.2667 14.55446777463618
Epoch (UTC): 19 June 2018 08:59:44
Eccentricity: 0.0007669
inclination: 98.5609°
perigee height: 702 km
apogee height: 713 km
right ascension of ascending node: 323.3898°
argument of perigee: 203.8176°
revolutions per day: 14.55446777
mean anomaly at epoch: 156.2667°
orbit number at epoch: 46361

The dashed part of the orbit path shows where the satellite is in the earth's shadow,  

DLR